Theta_e
327 332 355 355 351 348 345 342 342 341 340 339 338 337 336 334 333 332 332 331 331 331 331 331 331 332 333 334 336 337 339 342 344 347 353 354 354 355 358 357 358 355 360
331 333 355 354 352 348 348 346 345 345 344 341 340 339 338 337 336 336 335 334 334 335 334 334 333 333 333 334 335 337 338 340 343 344 351 352 354 355 356 356 357 355 359
326 334 350 354 353 351 350 350 349 347 346 343 341 341 340 340 340 340 339 338 337 337 337 337 337 336 335 335 336 338 339 340 340 343 347 351 350 354 354 356 358 357 357
328 336 347 354 353 352 352 351 350 348 346 344 342 341 340 341 341 341 341 340 341 340 340 340 340 340 338 336 336 336 338 339 340 342 345 348 348 353 354 356 357 356 356
330 338 345 355 353 353 352 351 350 349 348 344 344 343 343 344 344 344 342 342 341 342 343 342 340 340 341 339 338 340 339 338 341 341 343 347 348 350 353 353 353 356 356
333 339 347 354 354 353 353 352 351 348 348 346 346 345 345 345 344 344 343 343 342 342 342 341 340 342 343 342 341 342 340 338 342 340 343 344 348 348 352 353 353 353 354
331 337 344 354 354 354 353 351 351 351 350 349 347 347 345 345 344 343 342 342 342 342 341 341 340 340 344 343 342 343 342 339 339 340 341 343 345 347 350 352 353 353 351
331 335 341 352 354 353 353 353 352 352 351 350 349 347 346 343 343 342 342 341 341 340 340 339 341 342 343 343 341 342 342 341 339 339 341 342 343 346 350 352 353 354 351
331 334 339 345 351 354 353 352 352 352 351 350 348 345 343 340 337 337 337 337 338 338 338 339 340 341 342 341 340 341 341 342 339 339 339 341 343 347 350 351 352 354 354
333 334 338 343 347 345 348 353 352 352 348 345 343 341 336 336 336 335 334 334 335 336 336 337 338 339 341 341 340 339 340 340 339 337 339 340 344 346 349 351 352 354 354
333 334 336 340 341 339 340 345 350 346 344 342 338 336 337 331 328 330 331 332 332 334 336 337 337 338 340 339 339 339 340 336 336 336 338 340 344 345 349 350 352 353 353
328 330 334 334 334 333 336 333 334 333 331 328 329 329 327 325 324 326 329 332 333 334 335 336 336 338 338 333 334 338 335 333 334 335 337 340 343 344 348 349 351 352 352
326 330 329 329 328 328 329 326 327 325 325 325 326 326 324 323 322 324 324 324 324 327 328 329 329 331 333 332 331 332 332 331 333 334 336 339 342 343 347 348 350 351 351
316 323 323 324 325 324 324 323 324 323 322 320 321 323 321 320 321 321 321 322 323 324 325 326 326 328 330 330 329 329 330 331 332 332 333 338 340 343 347 348 349 350 350
311 315 318 320 320 321 320 321 321 321 322 321 320 321 321 320 320 321 322 323 324 326 324 324 324 326 327 328 329 328 328 328 330 332 333 336 338 341 346 347 349 349 349
311 313 316 319 318 319 319 319 320 320 321 321 321 321 323 322 321 321 321 322 322 322 322 323 323 324 325 326 327 327 327 327 328 330 332 333 336 339 345 346 348 348 349
310 313 317 318 318 319 319 319 319 320 321 321 321 323 323 323 322 322 321 321 321 322 322 322 322 324 324 324 325 326 326 326 327 329 332 333 335 338 344 346 347 347 349
312 314 317 321 320 319 319 319 320 320 321 321 322 323 324 324 322 321 321 320 321 321 321 320 320 321 322 322 323 324 326 326 328 328 331 334 336 339 341 346 347 346 346
314 315 317 319 319 319 318 318 319 321 321 322 322 322 323 324 324 322 320 320 321 320 320 319 319 320 320 320 321 323 324 325 326 331 332 334 336 339 339 342 346 344 345
316 316 318 319 318 318 317 317 319 320 321 322 323 323 324 324 325 322 319 319 320 320 318 318 318 320 320 321 323 324 323 325 327 330 331 334 335 337 339 339 344 343 343
315 316 317 317 316 316 317 317 316 318 319 321 324 325 325 325 326 322 319 319 321 319 319 318 318 318 319 321 320 320 322 326 327 329 332 332 333 334 338 339 337 339 339
316 316 315 316 316 317 317 317 319 318 320 321 322 324 326 326 325 324 321 321 320 319 318 317 318 317 318 320 318 317 315 320 326 328 328 332 331 335 335 336 335 336 336
314 315 316 316 317 318 318 319 319 319 320 319 320 322 323 325 325 324 323 322 320 319 317 317 318 318 317 319 321 319 314 313 320 326 329 330 331 332 332 332 332 333 332
315 316 317 317 318 318 318 317 317 317 316 318 319 320 321 324 325 325 323 322 320 319 317 318 319 320 321 318 321 324 322 323 318 317 325 328 329 329 330 330 329 331 332
315 316 317 318 318 318 318 318 319 317 317 318 319 319 322 322 324 324 322 321 320 319 319 318 320 320 321 321 322 322 322 322 325 322 316 321 325 327 329 330 330 331 330
315 316 317 317 316 317 317 318 319 317 317 316 318 318 318 319 321 323 322 321 321 320 319 320 321 321 321 322 323 325 324 322 322 323 321 321 321 325 328 329 330 330 331
Wind_Speed
10 7 21 19 18 17 16 16 15 14 13 12 10 9 7 6 4 4 3 3 3 4 3 3 3 4 4 4 3 3 4 5 6 7 9 7 7 10 9 10 13 12 14
13 9 21 20 19 18 17 16 15 14 14 13 12 11 9 8 7 7 6 6 6 8 5 5 5 6 6 6 5 4 4 5 6 8 9 9 10 11 12 11 13 12 14
13 12 18 21 20 19 17 17 16 14 14 14 14 13 12 12 11 11 10 9 9 10 9 7 7 7 7 7 7 7 5 5 6 8 9 5 6 12 13 13 14 15 15
13 12 16 22 21 20 18 17 15 15 15 14 14 14 13 14 14 13 11 11 12 13 11 10 9 8 8 8 9 8 8 7 7 7 4 5 5 12 14 13 13 16 16
11 12 15 23 21 20 18 16 15 15 15 16 15 15 15 14 13 15 12 13 14 15 14 13 12 11 10 10 10 9 8 9 8 7 3 3 3 6 13 13 13 16 18
10 12 16 22 22 19 18 17 16 17 16 16 16 16 15 14 15 15 15 17 16 16 15 14 14 12 13 12 11 10 8 11 10 3 3 4 3 7 11 12 14 15 13
8 9 14 21 20 20 19 18 17 16 16 16 16 16 14 14 14 15 15 16 16 16 16 15 15 15 13 13 12 10 10 12 6 4 4 4 4 7 11 14 13 15 17
11 8 9 19 19 19 18 17 17 16 16 16 15 12 12 11 11 13 13 14 14 14 16 16 17 15 13 12 12 10 10 12 7 4 4 5 6 8 10 14 13 14 17
7 8 7 10 15 18 17 17 17 15 14 12 10 9 9 9 10 12 13 14 15 15 16 17 17 16 13 11 13 12 12 11 5 4 5 4 7 9 11 14 15 15 17
6 7 9 9 9 8 9 17 15 15 13 12 11 10 10 9 9 10 9 9 11 13 15 16 17 18 15 13 13 13 14 14 5 5 4 4 9 10 12 14 16 16 18
4 7 7 8 8 8 6 7 12 14 13 12 11 11 8 3 5 6 8 11 11 12 13 14 16 18 16 15 14 15 16 4 4 3 3 9 11 12 13 14 15 17 18
9 8 8 7 7 7 5 6 5 5 3 4 4 5 3 3 3 5 8 11 11 12 12 13 12 14 16 4 5 14 5 5 4 4 3 11 12 13 14 14 15 17 19
12 7 10 8 6 7 5 4 3 2 2 2 5 4 4 3 3 3 2 3 3 6 3 4 5 4 3 4 4 4 4 5 3 3 5 11 13 14 14 14 15 19 20
9 12 8 8 7 6 4 4 4 3 3 3 4 5 3 3 4 4 3 4 3 2 4 3 2 3 3 4 5 6 6 5 3 2 4 11 13 14 14 14 15 19 21
10 7 9 8 8 6 6 4 4 4 4 4 4 5 4 4 5 4 4 3 3 2 2 3 2 2 3 4 4 5 5 5 5 3 3 12 14 14 14 15 15 20 23
9 12 8 8 7 7 6 6 4 4 5 4 4 5 6 5 4 4 4 4 3 2 2 2 2 2 3 3 5 5 5 4 5 5 4 5 13 13 13 14 16 21 26
5 9 13 11 8 8 7 6 4 4 4 4 5 6 6 6 5 5 4 4 3 3 3 2 2 2 2 2 4 4 3 4 5 6 5 5 6 12 12 15 16 22 29
12 14 11 10 8 7 6 5 4 4 4 4 4 4 6 6 6 4 4 3 3 3 2 3 2 2 2 2 2 3 3 3 5 5 5 4 5 5 8 15 16 20 28
13 14 12 9 10 8 6 4 5 5 4 4 4 4 6 6 5 5 3 3 3 2 3 2 1 2 2 2 3 3 3 4 4 4 5 5 5 4 4 8 12 19 26
13 14 13 8 8 7 4 3 2 3 4 4 4 4 5 4 5 5 3 4 3 2 2 2 3 3 2 2 2 2 1 1 2 3 3 3 3 4 4 5 6 10 21
12 14 12 10 7 5 2 2 3 3 2 2 3 4 4 4 5 4 3 3 3 4 3 4 3 4 3 2 2 1 1 1 2 2 2 1 1 2 1 4 4 5 4
15 13 10 8 8 5 3 3 2 1 2 3 3 3 3 4 4 4 4 3 4 3 3 4 4 3 2 3 2 1 1 1 3 1 2 2 2 2 4 5 7 9 10
14 12 11 9 8 6 5 2 2 1 1 2 2 2 2 3 3 4 4 4 4 3 3 4 5 4 3 2 2 2 2 1 2 2 4 2 4 3 6 7 9 9 11
10 9 9 8 8 6 6 3 3 2 1 2 1 1 2 1 1 2 3 4 4 3 4 4 3 2 3 4 1 2 1 2 3 3 2 2 4 5 8 5 10 6 9
9 9 8 8 7 5 5 4 3 2 2 1 0 1 1 2 2 2 3 4 4 3 3 5 4 4 2 3 3 2 1 0 2 3 3 2 5 4 7 7 10 7 8
7 7 7 8 6 5 5 4 4 3 3 1 0 1 2 1 1 3 3 3 3 3 4 4 4 5 4 2 2 2 2 2 2 3 4 4 6 4 5 6 6 6 10
Wind_Direction
221 170 179 178 175 176 174 174 177 176 177 180 183 184 182 188 198 216 231 263 264 262 266 274 266 264 260 265 272 277 290 305 315 314 300 252 218 189 181 182 170 156 152
163 163 175 177 178 181 182 181 183 182 183 188 193 196 203 206 213 226 240 256 276 277 268 263 255 259 256 257 263 274 279 284 298 306 313 274 219 195 184 185 180 163 160
152 157 173 177 180 185 187 188 187 187 191 196 200 204 212 218 222 225 231 242 252 263 272 271 265 255 252 250 256 262 260 272 280 295 302 315 227 206 194 192 191 178 164
152 163 173 179 183 188 190 189 187 192 198 204 210 217 222 225 229 230 232 244 249 251 254 259 264 263 256 251 249 256 267 266 270 278 308 313 244 206 201 203 204 186 173
156 167 175 181 184 189 190 189 188 195 204 210 217 224 230 235 238 235 238 248 253 254 248 248 260 258 254 249 248 247 250 265 266 268 284 294 275 231 210 216 211 199 185
165 168 179 183 183 188 190 191 193 200 208 216 222 233 240 243 240 241 242 245 250 256 260 263 266 261 252 247 243 239 245 255 266 251 257 274 253 253 228 211 210 204 192
159 168 175 182 186 187 191 193 198 205 211 219 227 237 243 247 249 251 251 256 251 248 253 260 258 257 260 253 246 237 228 247 244 228 244 260 250 241 238 226 213 199 195
161 164 171 181 187 193 190 193 199 206 213 220 232 245 249 252 259 264 265 263 260 255 262 265 264 264 261 255 252 254 238 243 241 211 237 251 251 245 238 232 223 204 194
149 160 164 179 189 193 196 195 199 205 217 223 225 228 241 253 262 269 272 270 268 268 265 265 264 265 265 254 252 242 240 236 224 215 224 242 258 252 243 236 226 211 193
158 175 180 176 178 184 198 200 200 203 207 208 211 219 232 246 256 264 272 280 275 273 271 267 268 263 258 249 243 242 241 235 231 224 229 234 252 257 245 238 225 213 198
191 196 180 177 174 165 177 204 202 201 205 209 214 223 229 223 250 260 265 270 271 270 267 260 264 261 259 252 239 234 234 219 226 229 230 245 251 259 254 245 231 215 205
205 199 187 178 174 159 166 188 180 202 191 193 207 219 232 225 240 240 249 261 268 272 280 282 284 271 249 207 232 229 212 201 217 232 232 246 252 257 257 246 235 216 205
205 193 190 174 164 168 171 160 178 185 199 217 231 228 229 227 242 243 253 264 274 271 273 292 300 290 215 196 200 189 204 222 213 224 246 255 256 258 259 248 241 214 200
191 197 166 170 167 177 162 170 176 184 198 228 233 221 205 224 232 235 229 232 234 241 255 259 277 278 237 197 192 197 202 220 231 240 254 260 260 262 260 258 238 212 196
205 177 180 168 164 174 174 183 177 195 210 222 222 210 197 212 221 219 228 223 230 229 235 249 254 254 231 211 193 200 213 229 237 244 248 265 264 266 261 257 240 213 193
183 185 154 167 165 156 173 185 191 191 221 216 223 223 218 212 218 215 223 222 232 212 226 242 245 226 217 192 204 208 224 230 242 245 253 256 256 261 257 250 236 211 190
175 134 163 165 158 164 183 192 192 213 204 226 230 221 221 212 217 221 220 216 220 216 222 224 226 199 195 196 214 215 230 245 249 247 250 248 247 255 250 239 234 203 182
141 154 155 161 164 172 183 192 207 220 214 233 233 224 224 218 205 210 213 221 212 216 210 217 193 202 220 204 216 235 242 256 261 251 250 246 240 246 255 237 227 197 190
141 142 157 155 165 178 187 192 216 234 235 241 235 228 223 214 199 202 209 224 212 208 210 200 202 183 193 207 230 241 250 255 269 269 246 236 236 248 252 250 218 190 174
146 151 154 157 159 170 169 206 249 251 248 241 237 233 224 211 198 199 207 219 204 202 203 173 183 190 186 186 202 229 303 289 266 264 252 206 247 264 262 225 203 183 178
146 148 153 149 171 153 156 177 224 223 253 272 266 247 214 206 205 196 206 206 190 204 200 180 173 181 188 149 118 88 74 349 330 246 155 195 223 257 199 140 143 143 180
152 150 142 154 164 177 169 197 163 180 256 259 282 285 212 203 209 200 199 201 190 184 199 184 170 144 168 177 139 136 94 10 58 97 116 137 124 112 105 116 100 126 142
148 147 151 160 169 182 184 118 73 30 321 336 312 15 297 225 220 206 189 192 187 176 189 183 179 163 139 186 224 141 139 167 136 45 78 114 116 101 102 116 114 113 127
144 141 136 154 170 182 165 134 154 160 226 243 269 312 295 68 129 147 177 180 180 165 187 186 173 172 143 157 205 210 124 155 148 135 68 89 95 102 106 107 115 107 116
136 146 146 157 170 162 160 158 150 162 228 243 63 321 321 31 75 130 143 146 156 183 197 177 167 189 193 162 168 151 130 105 67 122 129 120 79 79 112 130 137 119 134
123 132 147 161 169 157 168 175 152 187 210 184 358 328 346 22 53 99 131 143 158 184 176 179 184 192 187 186 204 150 133 141 153 126 121 125 117 95 97 112 116 118 133